Wind_Speed
92 98 102 106 110 116 122 128 134 144 144 147 138 123 115 106 101 98 93 91 82 71 65 58 53 49 45 42 39 37 34 32 31 29 28 28 27 27 27 27 28 29 30 30 31 31 32 33 33 35 37 37 37 37
97 101 106 111 116 120 126 132 140 145 149 142 127 120 112 104 98 95 90 85 75 69 61 56 52 48 44 40 36 34 32 30 28 26 26 25 25 24 25 24 25 26 25 25 26 27 28 28 29 29 29 30 29 28
100 104 110 114 120 124 130 135 142 147 145 144 125 117 110 102 98 93 89 79 71 63 56 52 49 46 42 39 35 31 29 26 24 23 21 20 19 19 19 18 18 18 19 21 22 22 22 20 21 21 20 19 18 18
102 107 113 118 122 128 134 140 150 146 145 131 124 117 108 99 96 90 87 75 67 62 59 55 51 46 40 35 31 28 25 23 20 18 17 15 14 12 11 12 12 12 12 11 13 14 13 13 13 12 13 15 16 16
106 111 114 120 125 132 137 147 146 147 136 123 120 113 106 98 94 89 86 74 67 62 57 51 44 38 34 31 29 28 27 25 23 19 15 13 9 7 5 4 4 4 6 7 8 9 10 10 10 11 12 11 10 10
109 113 117 122 127 136 143 146 149 138 123 119 115 109 102 95 92 87 85 72 66 61 56 50 44 39 36 33 32 32 31 29 24 20 16 13 8 4 3 3 4 5 6 7 8 8 10 10 10 9 8 6 6 7
111 114 118 124 130 138 145 144 147 130 120 115 110 104 96 92 88 85 82 72 67 63 58 52 47 42 38 34 31 28 26 25 22 18 14 11 8 7 7 7 6 6 6 7 10 12 12 11 9 6 5 4 5 6
112 116 120 125 132 138 145 145 146 128 118 111 106 100 92 89 85 84 80 69 64 61 57 52 47 43 40 35 31 28 25 23 21 18 14 12 10 8 7 6 5 4 7 10 12 12 11 9 5 4 2 1 3 5
114 118 124 128 134 141 143 141 148 129 116 107 102 94 88 86 83 84 79 69 64 61 56 52 46 42 39 35 30 27 23 20 19 16 14 11 9 6 5 2 3 5 8 8 10 10 8 6 4 2 1 2 3 5
118 121 127 133 137 141 139 140 145 127 112 103 97 89 85 82 81 82 75 66 62 59 53 49 44 40 37 34 31 27 24 20 17 15 13 10 7 4 2 2 5 8 10 9 9 7 6 4 3 2 3 4 5 6
120 125 131 134 138 137 136 143 131 121 108 99 92 84 81 79 77 79 73 64 59 56 52 47 42 39 35 32 28 25 22 19 16 13 10 7 4 1 2 4 6 9 10 9 7 7 6 4 4 4 6 8 9 10
123 128 131 137 134 139 141 135 119 113 104 95 87 80 77 74 74 76 69 61 58 56 51 46 41 36 32 29 26 23 21 18 15 11 8 5 2 2 4 4 5 6 6 9 10 9 7 6 7 8 10 12 13 15
126 129 133 133 136 143 135 121 113 105 99 92 83 78 75 72 73 75 67 58 56 54 50 44 38 34 31 28 25 22 19 16 13 11 6 2 1 4 7 6 8 10 11 12 11 11 12 13 13 13 15 17 19 21
128 131 131 137 141 140 123 112 106 99 94 87 80 77 73 69 70 73 66 56 54 53 49 42 38 34 30 27 24 21 19 16 12 10 8 4 2 5 7 6 8 11 11 14 15 18 19 19 16 14 17 21 24 26
129 131 135 139 138 125 114 107 100 95 90 82 76 73 69 64 68 71 64 54 51 51 47 43 37 33 28 25 22 19 17 15 13 12 10 8 5 4 5 8 10 13 15 17 19 22 22 18 20 23 24 26 29 28
132 135 137 137 128 116 109 101 96 91 85 78 73 68 65 60 63 67 62 53 48 47 44 40 37 32 27 22 19 17 15 14 13 12 11 10 7 6 6 9 12 15 18 21 24 26 25 25 26 26 28 29 30 32
132 134 136 136 119 113 105 97 92 88 80 74 68 63 61 56 59 64 61 53 48 45 43 40 38 33 27 20 17 16 16 15 14 12 12 12 11 9 9 10 12 15 18 21 22 23 24 26 27 28 28 30 32 33
134 137 134 124 116 109 102 94 88 83 75 69 64 60 57 53 55 61 61 54 47 43 42 40 37 33 27 21 18 17 16 15 14 13 13 12 12 12 11 12 14 15 17 20 21 22 25 26 27 28 30 31 33 35
139 128 125 115 113 100 94 89 84 79 71 63 61 57 53 50 52 58 60 56 49 44 40 38 36 32 29 25 21 19 17 16 15 14 14 13 13 13 13 13 13 14 16 17 19 21 23 26 28 30 32 35 37 39
124 121 116 109 102 92 87 85 78 73 66 61 58 55 48 48 49 55 59 57 52 46 41 38 35 32 30 26 23 21 19 18 16 15 14 12 13 14 15 16 18 19 21 23 24 26 28 30 32 34 36 38 40 42
119 112 106 99 95 88 83 79 72 67 63 61 56 52 47 45 47 53 58 58 53 47 41 38 35 32 29 27 24 22 21 20 19 18 17 19 21 22 23 25 26 27 28 29 30 32 33 35 36 38 40 42 44 47
107 104 100 95 89 86 83 74 64 60 59 58 53 49 47 47 49 53 58 59 56 49 42 38 35 34 31 28 26 24 23 22 22 21 22 22 22 23 24 26 28 29 31 33 35 37 38 40 42 43 45 46 48 50
102 101 95 89 87 86 79 67 60 57 54 53 53 49 48 49 53 56 59 60 58 50 44 39 36 34 32 30 29 27 26 25 25 26 26 27 28 29 31 33 34 36 38 39 41 42 43 44 46 46 47 48 48 48
96 91 86 84 85 81 73 61 54 51 51 51 51 53 55 56 60 62 61 60 58 52 46 40 36 34 33 32 30 29 29 30 30 30 30 31 33 34 35 36 36 37 38 40 41 42 42 43 44 43 42 42 43 45
84 81 81 80 77 72 67 59 51 47 50 53 55 58 60 63 67 67 65 61 57 52 47 41 37 35 32 31 32 32 32 32 33 33 34 34 34 34 35 37 38 40 41 42 43 44 44 44 44 45 46 47 48 49
78 77 78 75 71 67 62 57 50 47 53 58 60 61 64 69 72 70 64 61 56 51 47 42 39 37 35 33 33 33 33 33 33 34 35 36 37 38 38 40 41 43 44 44 44 45 45 46 46 47 48 49 50 51
73 75 71 69 66 62 57 54 52 52 56 62 67 71 72 71 70 67 62 58 54 50 46 42 39 38 37 36 36 35 36 37 37 38 39 40 42 42 43 44 45 46 47 47 48 48 48 50 50 50 50 50 50 50
69 66 65 65 61 58 54 55 57 59 63 66 72 78 75 70 65 60 57 55 53 49 46 42 39 38 38 37 37 37 39 40 40 41 42 44 45 46 47 47 48 49 49 50 50 51 52 52 52 52 51 50 49 50
65 61 59 59 59 59 60 61 64 67 71 75 76 73 69 63 57 54 54 52 50 48 45 42 40 39 39 39 39 39 40 42 43 44 45 46 48 49 49 50 50 51 51 52 53 53 54 53 52 51 51 51 50 48
60 60 59 61 63 65 67 68 72 77 77 74 69 64 61 59 55 53 51 49 47 45 43 41 39 39 39 39 40 41 42 43 44 46 47 48 49 50 51 51 51 52 53 54 54 54 53 52 51 52 51 49 48 48
62 64 66 68 70 74 75 76 75 71 68 64 61 58 57 54 52 50 49 46 43 42 41 40 39 39 39 39 40 41 42 43 45 46 47 49 49 50 50 51 51 52 52 53 53 52 51 51 51 50 50 48 47 47
68 69 72 75 76 75 71 67 63 60 58 57 56 54 52 49 47 47 45 42 40 40 40 39 39 40 40 40 41 42 43 44 45 47 48 49 50 50 50 51 52 51 51 52 51 51 51 51 51 50 48 47 46 44
73 72 70 67 65 63 61 58 57 55 53 52 51 49 47 45 44 43 42 40 39 39 39 39 39 40 41 41 42 44 44 45 46 48 48 49 50 51 51 49 50 51 51 51 51 51 51 51 49 48 46 45 43 41
Wind_Direction
327 326 329 330 334 337 335 336 336 338 338 336 337 337 335 334 335 334 334 333 332 331 330 328 328 328 328 327 325 324 321 317 313 309 305 301 295 288 282 276 271 267 264 261 259 257 256 255 254 254 255 257 260 260
326 327 331 333 336 337 336 336 337 337 338 339 336 337 336 336 337 336 336 336 336 336 336 336 335 335 335 334 332 330 327 321 315 311 304 298 293 287 282 278 273 270 269 267 263 257 254 251 252 254 255 256 255 255
328 330 332 334 336 334 336 336 336 337 338 339 338 337 337 338 338 339 340 339 339 340 340 339 340 338 337 338 336 333 329 324 319 315 310 304 299 292 284 279 273 263 257 251 251 254 253 249 246 244 243 243 242 242
329 331 334 335 334 336 336 336 338 337 336 337 338 338 338 339 339 340 342 342 343 344 346 345 343 342 341 340 340 339 337 334 332 330 326 322 312 298 282 270 264 257 250 244 236 235 233 228 225 220 220 226 227 230
330 331 334 335 335 336 336 336 336 337 338 338 337 338 338 338 340 341 343 344 345 347 345 343 339 342 344 349 353 355 356 355 351 348 345 340 331 320 292 268 254 232 214 205 200 192 189 191 198 205 209 208 206 216
329 333 333 334 335 336 335 336 337 337 337 339 337 338 338 338 339 341 343 344 344 347 347 347 346 350 352 354 360 2 0 356 352 352 352 350 349 360 53 89 116 138 149 153 155 162 169 170 175 175 180 188 206 211
330 331 333 333 335 334 334 337 337 338 338 338 337 338 338 338 339 340 343 344 344 345 344 345 344 347 349 351 354 355 355 353 353 355 359 6 17 40 61 83 91 101 121 140 150 155 154 151 149 143 158 191 211 219
330 331 332 333 334 333 335 335 339 337 338 337 338 339 338 337 338 340 343 343 343 343 342 341 342 341 342 344 345 346 347 346 347 349 354 5 15 29 53 66 78 102 134 155 160 154 144 134 125 123 119 191 236 241
330 330 331 332 332 332 334 335 336 335 336 337 337 338 337 337 338 340 342 342 342 343 342 340 340 338 336 338 339 338 338 338 336 334 336 339 347 354 10 44 116 147 157 165 157 143 136 123 116 101 154 232 250 258
328 329 330 330 331 331 333 334 334 334 334 336 337 338 337 337 337 340 341 341 343 344 341 339 340 338 336 336 336 337 337 337 335 332 330 326 330 319 297 210 185 172 170 170 163 152 139 137 163 198 245 245 268 272
328 329 329 328 330 331 331 333 334 333 334 335 337 338 337 335 336 340 342 341 343 344 342 340 340 340 339 337 336 338 340 339 338 338 335 328 321 290 222 206 197 185 179 176 173 179 186 207 239 257 301 281 279 284
327 328 327 328 329 330 331 331 332 333 333 334 336 338 336 335 337 341 342 341 343 344 343 343 342 341 341 341 341 343 344 345 344 342 339 333 312 186 170 155 171 178 182 181 210 223 238 255 267 279 290 295 297 295
325 326 327 328 329 329 330 331 331 332 332 333 336 337 337 335 338 342 342 342 344 345 344 344 346 345 346 347 348 348 349 349 347 348 336 326 210 177 170 158 157 183 193 206 227 244 258 264 272 289 296 297 297 300
323 325 326 328 327 328 329 329 330 331 332 333 335 336 336 335 338 342 342 344 345 345 345 346 347 348 350 350 350 351 353 355 357 358 354 341 260 194 172 167 180 199 215 228 241 254 261 269 291 297 302 299 296 297
322 323 325 325 327 327 328 328 329 330 332 332 334 335 335 335 338 342 342 343 346 345 344 345 347 347 348 350 352 353 359 4 6 6 1 355 338 280 226 213 214 218 227 238 250 262 274 285 289 291 292 293 294 299
321 322 324 326 327 326 326 327 327 330 331 331 332 333 334 334 338 342 342 342 344 345 346 345 345 343 346 350 355 1 6 10 8 8 1 353 338 304 274 255 245 244 247 254 261 267 276 283 286 289 293 294 295 297
319 321 324 322 324 324 324 325 326 329 330 329 331 332 332 332 337 341 344 343 343 344 346 347 345 345 346 351 356 1 10 11 7 6 6 359 343 326 303 288 275 269 270 272 275 278 280 283 286 289 292 294 298 300
318 321 320 321 320 322 321 323 326 327 329 328 329 331 330 331 335 341 344 344 342 342 342 345 345 346 347 350 357 1 8 11 6 1 357 354 350 343 326 311 306 303 296 292 290 290 289 291 294 296 297 297 298 299
317 319 318 318 318 319 318 321 325 325 327 327 326 330 328 329 334 340 343 344 341 340 340 340 342 345 349 350 353 359 5 9 9 5 5 1 356 352 346 338 331 323 318 312 306 302 299 298 298 298 299 300 300 300
315 317 316 316 317 316 317 319 323 323 323 324 325 326 326 327 331 337 341 342 341 338 337 335 335 338 342 345 348 350 351 352 353 350 347 345 342 336 332 327 323 318 314 310 307 305 303 301 301 300 301 302 303 304
313 314 313 314 314 314 315 319 321 320 320 320 322 323 324 325 328 334 337 339 338 336 333 330 328 326 331 334 338 341 341 339 339 338 336 333 328 326 323 320 317 314 311 308 306 305 304 303 303 303 302 303 302 302
311 311 311 311 311 311 313 317 319 316 316 316 319 320 321 323 325 329 333 335 334 332 329 326 324 322 319 318 321 324 328 327 326 325 322 320 318 315 314 312 309 307 306 306 305 304 303 302 301 301 300 300 300 300
308 307 307 308 307 308 310 316 315 313 312 314 315 317 318 321 322 326 328 329 329 329 325 323 321 319 316 314 313 312 315 316 314 313 312 311 310 309 308 308 307 306 306 304 303 302 302 301 301 301 301 302 302 303
304 304 304 305 304 305 310 314 312 308 307 309 311 313 315 319 319 322 324 325 324 324 320 320 318 316 314 314 312 312 311 311 309 309 310 311 313 312 311 310 309 308 308 308 307 306 305 304 304 304 304 304 304 306
302 302 301 300 302 304 307 309 308 302 302 304 308 310 312 315 314 317 319 320 319 318 316 315 313 312 311 312 311 312 312 311 312 312 312 311 312 312 311 310 310 310 309 309 308 308 309 308 307 306 305 305 305 305
302 300 298 300 301 303 305 304 304 300 300 302 304 307 311 312 312 312 315 314 314 313 311 310 310 309 309 310 310 311 311 310 310 312 312 312 312 312 312 312 310 309 309 310 310 310 310 309 308 308 307 307 307 306
298 297 298 299 301 302 301 300 298 297 298 302 304 308 310 309 308 308 309 308 309 308 307 305 305 306 305 307 308 309 310 310 311 311 311 311 312 312 312 311 311 311 311 312 312 312 312 311 311 310 310 310 309 308
296 297 297 298 298 298 297 295 296 299 301 302 304 305 306 305 305 304 303 304 304 303 303 302 301 301 302 303 303 305 306 307 307 308 309 310 310 310 310 311 311 311 311 312 312 312 312 312 312 313 312 312 310 310
296 297 296 295 295 295 295 297 299 300 301 302 302 302 302 302 300 298 299 299 299 300 299 300 300 300 300 300 302 302 303 304 305 307 307 307 307 308 308 309 309 310 310 311 312 312 313 312 312 312 311 311 311 312
293 294 293 293 294 295 297 298 299 298 299 299 298 298 297 297 297 297 296 296 296 296 296 297 298 299 300 300 300 301 302 302 303 304 304 304 305 306 307 308 309 310 311 312 312 313 313 313 312 311 312 313 313 313
290 291 292 293 294 295 296 297 297 296 295 295 295 295 296 296 295 295 294 294 294 294 293 294 296 298 298 299 299 301 301 301 301 302 303 304 306 308 308 310 311 311 311 311 311 312 312 311 312 313 314 314 313 312
289 290 292 293 294 294 295 295 294 293 293 293 294 294 293 293 293 291 291 292 292 291 292 294 296 297 299 300 301 301 301 302 302 303 304 306 308 309 310 311 311 312 312 312 312 312 312 313 314 315 315 314 312 310
291 292 293 293 293 292 292 292 293 293 293 293 292 292 292 291 290 290 291 291 291 291 292 294 296 298 299 300 300 301 301 302 303 304 306 307 309 310 311 311 311 312 312 312 312 312 312 313 315 315 314 312 311 312
Height
10567 10552 10535 10519 10499 10480 10461 10441 10417 10392 10364 10338 10310 10283 10260 10237 10214 10194 10174 10153 10135 10120 10105 10091 10079 10068 10059 10051 10042 10035 10029 10024 10021 10018 10016 10013 10013 10012 10013 10014 10016 10018 10020 10022 10025 10029 10032 10035 10038 10039 10041 10043 10045 10047
10551 10534 10517 10500 10480 10463 10444 10422 10397 10371 10345 10317 10289 10268 10244 10221 10200 10181 10162 10142 10123 10106 10092 10079 10067 10058 10050 10042 10035 10027 10022 10018 10013 10010 10008 10006 10004 10003 10003 10004 10005 10007 10010 10012 10014 10017 10020 10023 10026 10029 10031 10033 10035 10037
10534 10517 10500 10481 10463 10445 10424 10402 10379 10353 10327 10303 10275 10252 10229 10207 10186 10168 10150 10131 10115 10101 10088 10077 10064 10053 10044 10036 10029 10023 10017 10012 10008 10004 10001 9999 9997 9996 9996 9997 9998 9999 10001 10003 10004 10008 10011 10015 10017 10020 10023 10025 10028 10030
10519 10501 10483 10465 10447 10427 10406 10384 10360 10334 10307 10279 10259 10237 10215 10195 10178 10159 10142 10125 10109 10094 10081 10070 10059 10049 10041 10034 10026 10020 10014 10009 10005 10001 9997 9994 9992 9992 9992 9992 9992 9993 9995 9997 10000 10002 10005 10008 10011 10014 10017 10020 10023 10025
10502 10485 10466 10450 10432 10411 10389 10367 10341 10317 10292 10266 10244 10223 10204 10185 10168 10151 10135 10119 10106 10092 10080 10069 10059 10049 10041 10032 10024 10018 10012 10008 10004 9999 9995 9993 9991 9990 9990 9989 9990 9990 9992 9994 9996 9999 10002 10005 10009 10012 10015 10017 10020 10022
10487 10468 10452 10434 10414 10396 10374 10350 10327 10299 10277 10255 10235 10214 10196 10178 10160 10145 10130 10114 10101 10089 10078 10067 10057 10048 10040 10032 10024 10017 10013 10009 10005 9999 9996 9994 9992 9990 9989 9989 9989 9990 9992 9994 9997 10000 10002 10005 10009 10011 10014 10017 10019 10020
10470 10453 10437 10419 10400 10380 10358 10335 10312 10287 10265 10246 10226 10206 10188 10171 10155 10140 10124 10108 10095 10084 10073 10063 10055 10047 10039 10032 10025 10019 10015 10011 10007 10002 9998 9995 9993 9991 9990 9989 9990 9991 9993 9995 9998 10000 10004 10006 10009 10011 10013 10015 10016 10017
10455 10440 10423 10404 10387 10366 10344 10323 10301 10277 10257 10236 10216 10197 10181 10165 10150 10134 10119 10104 10093 10080 10069 10059 10052 10043 10036 10030 10023 10018 10013 10009 10006 10002 9998 9996 9994 9992 9991 9990 9991 9993 9995 9997 9999 10002 10005 10007 10010 10011 10012 10013 10014 10015
10441 10424 10408 10390 10372 10353 10332 10310 10293 10269 10249 10228 10209 10191 10176 10159 10143 10129 10113 10099 10088 10076 10064 10055 10047 10040 10032 10026 10021 10016 10011 10008 10004 10001 9998 9995 9994 9992 9992 9992 9993 9995 9997 9999 10001 10004 10006 10008 10010 10011 10012 10012 10012 10012
10425 10410 10393 10376 10358 10339 10320 10300 10281 10259 10240 10222 10203 10186 10170 10154 10139 10125 10109 10096 10084 10072 10061 10052 10043 10035 10028 10021 10015 10011 10007 10004 10000 9997 9995 9993 9992 9992 9992 9993 9994 9996 9998 10000 10003 10005 10007 10008 10009 10009 10009 10009 10009 10010
10411 10395 10378 10361 10344 10323 10303 10286 10265 10248 10230 10214 10197 10181 10166 10149 10137 10121 10105 10092 10080 10069 10058 10048 10040 10032 10024 10018 10013 10008 10004 10001 9998 9996 9993 9992 9992 9992 9992 9993 9995 9997 9999 10002 10004 10005 10006 10006 10007 10007 10007 10007 10007 10007
10395 10379 10362 10346 10327 10308 10289 10272 10253 10237 10221 10204 10189 10175 10161 10147 10133 10118 10103 10089 10076 10065 10055 10046 10037 10028 10022 10016 10010 10006 10002 9999 9997 9995 9993 9992 9991 9991 9992 9993 9995 9998 10001 10003 10004 10004 10004 10005 10005 10005 10005 10004 10004 10003
10379 10364 10347 10329 10311 10292 10274 10257 10240 10226 10212 10195 10180 10167 10155 10140 10126 10112 10098 10085 10073 10063 10053 10043 10035 10028 10021 10015 10010 10005 10002 9999 9996 9994 9992 9991 9991 9991 9992 9993 9995 9997 9999 10001 10002 10003 10003 10002 10002 10002 10002 10001 9999 9998
10362 10349 10333 10315 10297 10279 10260 10244 10230 10217 10202 10188 10172 10158 10146 10134 10122 10109 10095 10083 10072 10061 10051 10042 10035 10027 10021 10015 10010 10005 10002 9998 9996 9994 9992 9991 9991 9991 9991 9993 9995 9997 9999 10000 10000 9999 9999 9999 9999 9998 9997 9995 9993 9991
10346 10331 10315 10299 10281 10262 10247 10232 10218 10205 10192 10178 10165 10153 10142 10130 10117 10104 10092 10081 10071 10060 10051 10043 10035 10028 10021 10015 10010 10006 10002 9999 9997 9995 9993 9992 9992 9992 9992 9993 9994 9995 9996 9996 9996 9995 9995 9995 9994 9993 9990 9988 9985 9983
10329 10315 10298 10281 10265 10250 10234 10221 10207 10195 10181 10169 10156 10144 10135 10125 10114 10103 10090 10079 10069 10061 10052 10043 10035 10028 10021 10015 10010 10007 10003 9999 9997 9995 9994 9992 9991 9991 9991 9992 9992 9992 9993 9992 9992 9991 9990 9989 9987 9986 9984 9981 9978 9976
10311 10298 10283 10265 10251 10239 10223 10210 10197 10183 10173 10162 10150 10139 10129 10120 10110 10098 10087 10075 10066 10058 10051 10043 10035 10028 10021 10015 10011 10007 10003 10000 9998 9995 9994 9993 9992 9991 9990 9989 9989 9989 9988 9987 9986 9985 9984 9982 9980 9978 9975 9973 9970 9966
10291 10281 10265 10247 10236 10224 10207 10197 10188 10173 10165 10152 10141 10133 10123 10115 10105 10095 10084 10073 10064 10056 10049 10042 10036 10029 10022 10016 10011 10007 10003 10000 9997 9995 9994 9992 9991 9990 9989 9987 9986 9985 9984 9982 9981 9979 9977 9975 9973 9970 9967 9963 9960 9956
10274 10259 10243 10230 10219 10210 10196 10184 10175 10162 10153 10145 10133 10126 10117 10109 10101 10091 10081 10071 10061 10054 10047 10041 10035 10029 10022 10016 10011 10006 10003 10000 9997 9995 9993 9991 9989 9988 9987 9986 9984 9981 9979 9977 9975 9973 9970 9967 9964 9961 9958 9954 9950 9946
10249 10241 10223 10212 10201 10193 10182 10173 10164 10152 10143 10135 10127 10118 10111 10103 10095 10087 10078 10068 10059 10050 10043 10038 10033 10027 10021 10015 10011 10006 10002 10000 9997 9994 9992 9990 9988 9985 9984 9982 9979 9977 9974 9971 9968 9965 9961 9958 9954 9951 9947 9943 9939 9934
10228 10219 10205 10195 10183 10174 10167 10162 10152 10141 10132 10123 10117 10109 10103 10097 10090 10082 10074 10065 10056 10047 10040 10034 10029 10024 10019 10015 10010 10005 10001 9998 9995 9992 9989 9987 9983 9981 9978 9975 9972 9969 9965 9962 9959 9956 9952 9948 9944 9940 9935 9931 9926 9921
10209 10197 10184 10175 10167 10157 10148 10144 10140 10130 10120 10112 10107 10101 10094 10088 10081 10075 10068 10059 10050 10043 10035 10029 10024 10020 10016 10011 10006 10002 9998 9994 9991 9987 9984 9981 9978 9975 9972 9968 9965 9962 9958 9955 9951 9947 9942 9937 9932 9927 9922 9917 9911 9906
10190 10177 10166 10156 10146 10137 10134 10132 10124 10115 10109 10100 10093 10090 10085 10079 10072 10067 10060 10052 10043 10036 10028 10022 10017 10013 10009 10005 10000 9996 9992 9989 9986 9982 9978 9974 9970 9967 9964 9960 9957 9953 9948 9944 9940 9935 9930 9924 9918 9913 9907 9901 9895 9890
10167 10156 10146 10138 10126 10119 10117 10118 10111 10103 10095 10090 10083 10078 10072 10067 10060 10055 10049 10042 10034 10027 10020 10014 10009 10005 10001 9996 9992 9988 9984 9981 9977 9974 9971 9966 9961 9957 9953 9949 9945 9941 9937 9932 9927 9921 9915 9910 9904 9898 9893 9887 9882 9877
10145 10134 10127 10116 10110 10106 10103 10100 10096 10090 10083 10076 10071 10066 10061 10053 10045 10040 10035 10030 10024 10017 10011 10005 10000 9996 9992 9987 9982 9978 9975 9971 9968 9964 9960 9956 9951 9946 9942 9938 9934 9929 9925 9920 9914 9908 9902 9897 9891 9886 9880 9874 9868 9863
10123 10114 10100 10097 10094 10090 10089 10084 10080 10075 10067 10061 10056 10053 10049 10041 10030 10025 10022 10014 10011 10006 10000 9994 9989 9985 9981 9977 9974 9969 9965 9962 9958 9954 9949 9945 9940 9935 9931 9927 9922 9917 9912 9907 9901 9895 9889 9883 9878 9872 9867 9860 9854 9847
10100 10087 10084 10080 10076 10074 10070 10065 10062 10058 10052 10046 10038 10033 10030 10026 10018 10010 10005 10000 9997 9992 9987 9982 9978 9974 9970 9966 9962 9958 9955 9951 9947 9943 9938 9933 9928 9923 9919 9914 9909 9904 9898 9893 9887 9881 9875 9870 9864 9858 9851 9846 9839 9832
10078 10074 10066 10060 10057 10054 10053 10048 10045 10041 10037 10031 10025 10016 10012 10006 10001 9996 9989 9984 9981 9978 9974 9969 9966 9962 9958 9955 9951 9947 9943 9939 9935 9931 9926 9921 9916 9911 9907 9901 9896 9890 9885 9879 9873 9868 9861 9855 9849 9843 9836 9830 9823 9817
10056 10054 10050 10045 10041 10036 10033 10031 10027 10022 10019 10014 10007 9997 9990 9986 9985 9979 9973 9969 9966 9963 9959 9956 9952 9950 9946 9942 9939 9935 9931 9927 9923 9919 9914 9909 9904 9898 9894 9888 9882 9876 9871 9866 9860 9853 9847 9841 9835 9828 9822 9815 9809 9802
10038 10033 10033 10028 10023 10018 10015 10015 10009 10002 9996 9990 9985 9979 9973 9968 9965 9962 9958 9954 9952 9948 9945 9942 9940 9937 9933 9930 9926 9922 9918 9914 9910 9906 9901 9896 9890 9885 9880 9874 9869 9863 9857 9850 9845 9839 9833 9826 9820 9813 9807 9801 9795 9788
10023 10018 10013 10009 10004 9996 9995 9992 9987 9981 9975 9969 9964 9960 9956 9953 9949 9946 9942 9939 9938 9935 9932 9929 9927 9924 9921 9917 9914 9910 9906 9902 9897 9892 9887 9882 9877 9872 9866 9860 9854 9849 9843 9837 9831 9825 9819 9813 9806 9800 9794 9788 9781 9774
10002 9998 9995 9988 9982 9977 9973 9969 9965 9960 9955 9951 9946 9943 9940 9938 9935 9930 9927 9926 9924 9922 9919 9916 9913 9910 9907 9904 9900 9896 9892 9888 9884 9879 9873 9867 9862 9857 9852 9846 9840 9834 9828 9822 9817 9811 9805 9799 9793 9787 9780 9774 9767 9760
9981 9978 9972 9966 9961 9956 9953 9951 9947 9942 9938 9934 9930 9928 9926 9923 9920 9917 9914 9913 9911 9909 9906 9903 9900 9897 9893 9890 9886 9882 9878 9874 9870 9865 9860 9854 9847 9841 9837 9833 9826 9820 9815 9809 9803 9797 9791 9786 9780 9773 9766 9760 9754 9748